www.pogodaiklimat.ru

Погода и климат >> Архив погоды >> Туркменистан >> Кака


ПОГОДА в Каке

  • Прогноз погоды в Каке
  • Монитор погоды в Каке

АРХИВ ПОГОДЫ в Каке

Время (UTC), дата Ветер
(напр.,м/с)
 
Видим.   Явления Облачность Т
(С)
Тd
(С)
f
(%)
Тe
(С)
Тes
(С)
Комфортность P
(гПа)
Po
(гПа)
Тmin
(С)
Tmax
(С)
R
(мм)
R24
(мм)
S
(см)
12 10.08 З 2 20 км ясно +34.1 -0.5 11 +31 +37 жарко 1005.9 972.2
15 10.08 З 2 50 км ясно +33.2 +2.1 14 +30 +30 жарко 1005.3 971.5 +35.0
18 10.08 ЮЗ 3 50 км ясно +26.9 +1.9 20 +25 +25 комфорт 1006.0 971.5 +35.0
21 10.08 ЮЗ 2 50 км ясно +25.5 +0.9 20 +24 +24 комфорт 1005.3 970.7
00 11.08 Ю 2 50 км ясно +23.8 +1.1 22 +23 +23 комфорт 1004.5 968.8
03 11.08 штиль 0 50 км ясно +26.4 +2.5 21 +25 +29 комфорт 1005.0 970.5 +23.0
06 11.08 С 2 50 км ясно +33.6 +5.8 18 +31 +46 жарко 1005.6 971.9 +23.0
09 11.08 СЗ 4 50 км ясно +36.4 +0.9 11 +33 +45 жарко 1005.6 972.1
12 11.08 С 4 50 км ясно +37.2 +0.9 10 +34 +38 очень
жарко
1004.5 971.2
15 11.08 С 2 50 км ясно +34.4 +1.7 13 +31 +31 жарко 1005.7 972.1 +37.8
18 11.08 ЮЗ 2 50 км ясно +30.7 +2.1 16 +28 +28 жарко 1007.9 973.7 +37.8
21 11.08 З 2 50 км ясно +29.2 +14.8 42 +32 +32 душно 1008.8 974.6
00 12.08 З 2 50 км ясно +28.1 +18.4 56 +33 +33 очень
душно
1010.0 975.6
03 12.08 З 4 10 км 9/5 600 м
[Cb cap Ac cast Cc]
+27.3 +19.5 62 +33 +33 очень
душно
1012.0 977.6 +26.8
06 12.08 С 6 10 км 10/8 600 м
[Cu Sc Ac As]
+28.2 +16.3 48 +31 +32 душно 1013.6 979.1 +26.8
09 12.08 З 4 10 км 8/6 600 м
[Cb cap Ac lent]
+30.0 +13.9 37 +32 +35 жарко 1012.8 978.6
12 12.08 СЗ 4 50 км 4/0
[Cc]
+29.8 +17.7 48 +34 +38 очень
душно
1011.3 977.1
15 12.08 СЗ 4 10 км 8/6 600 м
[Cb cap Ac cast]
+28.3 +15.4 45 +31 +31 душно 1011.8 977.4 +30.8
21 12.08 З 4 10 км 6/5 600 м
[Cb cap Ci fib]
+27.0 +13.9 45 +29 +29 жарко 1012.6 978.0
03 13.08 С 4 50 км 8/0
[Ac cast]
+23.5 +7.6 36 +24 +25 комфорт 1015.2 980.1 +23.0
06 13.08 СЗ 4 50 км 6/0
[Ac lent Cc]
+26.4 +10.4 37 +27 +34 жарко 1015.3 980.5 +23.0
12 13.08 З 4 50 км ясно +30.6 +9.5 27 +30 +34 жарко 1012.5 978.3
15 13.08 СЗ 4 50 км 4/0
[Ac cast]
+28.8 +8.6 28 +28 +28 жарко 1012.8 978.4 +31.4
18 13.08 З 2 50 км ясно +24.7 +3.7 26 +24 +24 комфорт 1015.3 980.2 +31.4
21 13.08 штиль 0 50 км ясно +22.0 +5.9 35 +23 +23 комфорт 1015.2 979.9
00 14.08 ЮЗ 2 50 км ясно +19.5 +5.1 39 +21 +21 комфорт 1004.8 979.1
03 14.08 штиль 0 50 км ясно +23.3 +5.8 32 +24 +27 комфорт 1015.2 980.0 +18.6
06 14.08 СЗ 4 50 км ясно +27.5 +9.3 32 +28 +37 жарко 1015.5 980.9 +18.6
09 14.08 С 4 50 км ясно +30.0 +9.7 28 +30 +41 жарко 1014.3 979.9
12 14.08 СЗ 4 50 км ясно +31.1 +10.9 29 +31 +35 жарко 1012.3 978.2
15 14.08 С 2 50 км ясно +28.3 +9.5 31 +28 +28 жарко 1013.6 979.1 +31.8
18 14.08 З 2 50 км ясно +23.9 +7.6 35 +24 +24 комфорт 1015.8 980.7 +31.8
21 14.08 штиль 0 50 км ясно +20.1 +6.7 42 +21 +21 комфорт 1016.1 980.5
00 15.08 штиль 0 50 км ясно +16.3 +3.8 43 +16 +16 1016.6 980.5
03 15.08 Ю 2 50 км ясно +19.6 +5.9 41 +21 +23 комфорт 1016.5 980.9 +15.8
06 15.08 В 2 50 км ясно +28.7 +5.0 22 +27 +42 жарко 1014.5 980.0 +15.8
18 15.08 Ю 2 50 км ясно +23.9 +5.9 31 +24 +24 комфорт 1013.3 978.3 +32.6
21 15.08 З 2 50 км ясно +25.0 +2.5 23 +24 +24 комфорт 1012.5 977.6
00 16.08 ЮЗ 2 50 км ясно +22.7 +3.6 29 +23 +23 комфорт 1012.7 977.5
03 16.08 З 20 50 км ясно +22.8 +4.6 31 +23 +23 комфорт 1013.9 978.7 +19.7
06 16.08 З 4 50 км ясно +27.8 +2.9 20 +26 +36 жарко 1013.8 979.2 +19.7
09 16.08 штиль 0 50 км ясно +31.5 +0.6 14 +29 +52 опасность
солнечного
удара
1012.7 978.5
12 16.08 С 2 50 км ясно +32.6 +5.1 18 +30 +36 жарко 1010.8 976.9
15 16.08 штиль 0 50 км ясно +30.5 +7.7 24 +29 +29 жарко 1010.7 976.6 +33.3
03 17.08 штиль 0 50 км ясно +21.9 +7.1 38 +23 +26 комфорт 1011.5 976.3 +18.8

 

Местоположение метеостанции Кака (Ахалский велаят, Туркменистан): широта 37.35 долгота 59.63 высота над уровнем моря 308 м.

В архиве по умолчанию представлена погода в Каке за последнюю неделю. Архивные данные за месяц целиком и за предыдущие месяцы, начиная с января 2011 года, Вы можете получить, выбрав интересующий диапазон дат из раскрывающегося списка и нажав кнопку "Ввод!".


*Определитесь, кто Вы:
робот инопланетянин человек

Внимание! Время в таблицах - всемирное. Для получения местного времени необходимо прибавить поправку, которая равна 5 ч.

Смотрите также архив погоды в соседних городах и на ближайших метеорологических станциях:

Погода в Теджене (Ахалский велаят, Туркменистан) (79 км)
Погода в Кучане (Иран) (105 км)
Погода в Мешхеде (Иран) (120 км)
Погода в Ашхабаде (город Ашхабад, Туркменистан) (131 км)
Погода в Серахсе (Иран) (165 км)
Погода в Сарагте (Ахалский велаят, Туркменистан) (168 км)
Погода в Боджнурде (Иран) (204 км)
Погода в Себзеваре (Иран) (215 км)
Погода в Байрамалы (Ахалский велаят, Туркменистан) (227 км)
Погода в Бахарлы (Ахалский велаят, Туркменистан) (228 км)

Пояснения к столбцам:

Ветер - указаны скорость ветра в м/с - средняя за 10 мин, порывы в срок и между сроками (в фигурных скобках) и направление, откуда дует ветер: С - северный, СВ - северо-восточный, В - восточный, ЮВ - юго-восточный, Ю - южный, ЮЗ - юго-западный, З - западный, СЗ - северо-западный.
Видимость - горизонтальная дальность видимости в метрах или километрах. При видимости от 1 до 10 км при отсутствии осадков обычно наблюдается дымка, при ухудшении видимости до 1 км и менее - туман. В сухую погоду видимость может ухудшаться дымом, пылью или мглою.
Явления - указаны атмосферные явления, наблюдавшиеся в срок или в последний час перед сроком; фигурными скобками обозначены явления, наблюдавшиеся между сроками (за 1-3 часа до срока); квадратными скобками обозначены град или гололедные отложения с указанием их диаметра в мм.
Облачность - указаны через наклонную черту общая и нижняя облачность в баллах и высота нижней границы облаков в метрах; квадратными скобками обозначены формы облаков: Ci - перистые, Cs - перисто-слоистые, Cc - перисто-кучевые, Ac - высококучевые, As - высокослоистые, Sc - слоисто-кучевые, Ns - слоисто-дождевые, Cu - кучевые, Cb - кучево-дождевые. Подробнее классификацию облаков см. в Атласе облаков (PDF).
T - Температура воздуха - температура, измеренная на высоте 2 м над землей.
Td - Температура точки росы - температура, при понижении до которой содержащийся в воздухе водяной пар достигнет насыщения.
f - Относительная влажность воздуха - влажноcть воздуха, измеренная на высоте 2 м над землей.
Te - Эффективная температура - температура, которую ощущает одетый по сезону человек в тени. Характеристика душности погоды. При расчете учитывается влияние влажности воздуха и скорости ветра на теплоощущения человека.
Tes - Эффективная температура на солнце - температура, которую ощущает человек, с поправкой на солнечный нагрев. Характеристика знойности погоды. Зависит от высоты солнца над горизонтом, облачности и скорости ветра. Ночью, в пасмурную погоду, а также при ветре 12 м/с и более поправка равна нулю.
P - Атмосферное давление - приведенное к уровню моря атмосферное давление.
Po - Атмосферное давление - измеренное на уровне метеостанции атмосферное давление.
Tmin - Минимальная температура - минимум температуры воздуха на высоте 2 м над землей.
Tmax - Максимальная температура - максимум температуры воздуха на высоте 2 м над землей.
R - Количество осадков - Количество выпавших осадков за период времени, мм. При наведении курсора мыши на число - период времени, за который выпало указанное количество осадков.
R24 - Количество осадков - Количество выпавших осадков за 24 часа, мм.
S - Снежный покров - Высота снежного покрова, см. При наведении курсора мыши на число - состояние снежного покрова и степень покрытия местности в баллах.